Location: Madrid
(40.4167°N, 3.7036°W)
Time: 18:12:07
(UTC+00:00)

ISS - Pass Details

Date: 15 October 2025
Orbit: 414 x 421 km, 51.6° (Epoch: 07 November)

Event Time Altitude Azimuth Distance (km) Brightness Sun altitude
Rises 05:47:27 0° 221° (SW) 2,349 -0.3 -8.1°
Reaches altitude 10° 05:49:33 10° 216° (SW) 1,492 -1.3 -7.7°
Maximum altitude 05:52:50 53° 139° (SE) 521 -3.0 -7.0°
Drops below altitude 10° 05:56:08 10° 61° (ENE) 1,506 0.0 -6.4°
Sets 05:58:16 0° 57° (ENE) 2,375 1.0 -6.0°
